180  
ASUS44 KFWD 072315  
RWRTX  
NORTH TEXAS HOURLY WEATHER ROUNDUP  
NATIONAL WEATHER SERVICE FORT WORTH TX  
600 PM CDT TUE JUL 07 2020  
 
NOTE: "FAIR" INDICATES FEW OR NO CLOUDS BELOW 12,000 FEET WITH NO  
SIGNIFICANT WEATHER AND/OR S TO VISIBILITY
.  
 
TXZ118-119-080000-  
DALLAS/FORT WORTH METROPLEX  
 
CITY SKY/WX TMP DP RH WIND PRES REMARKS
 
DFW AIRPORT PTSUNNY 89 75 63 E7 29.87R HX 99  
DALLAS LOVE FAIR 90 70 51 SE9 29.88R HX 95  
FTW MEACHAM FAIR 87 73 62 SW5 29.88R HX 94  
DAL-EXECUTIVE FAIR 88 71 57 S6 29.89R HX 94  
FTW-ALLIANCE FAIR 91 73 55 SE7 29.87S HX 99  
FTW-NAS-JRB FAIR 90 74 59 VRB6 29.88S HX 99  
FTW-SPINKS MOSUNNY 90 73 58 S6 29.91R HX 98  
ARLINGTON FAIR 89 73 59 SE12 29.89R HX 97  
GRAND PRAIRIE SUNNY 88 72 58 CALM 29.90R HX 94  
ADDISON MOSUNNY 88 70 55 E7 29.89S HX 92  
MESQUITE MOSUNNY 86 73 66 SE5 29.91R HX 93  
LANCASTER FAIR 87 74 65 SE8 29.91S HX 94  

 
 
TXZ091>094-102>105-117-120-121-131>134-080000-  
NORTH CENTRAL TEXAS  
 
CITY SKY/WX TMP DP RH WIND PRES REMARKS
 
SHRMAN/DENISON MOSUNNY 88 73 62 E3 29.91S HX 96  
GAINESVILLE PTSUNNY 87 72 59 SE6 29.91F HX 94  
BOWIE FAIR 90 76 62 CALM 29.90F HX 102  
BRIDGEPORT FAIR 90 70 51 SE3 29.90S HX 94  
DECATUR FAIR 89 71 55 E6 29.89S HX 95  
DENTON FAIR 90 72 55 VRB5 29.88S HX 97  
MCKINNEY FAIR 87 73 62 SE8 29.89R HX 94  
BONHAM FAIR 85 74 70 SE13 29.91S HX 93  
GREENVILLE FAIR 88 73 62 SE6 29.91S HX 96  
ROCKWALL FAIR 87 72 61 S6 29.90S HX 93  
TERRELL FAIR 85 72 65 E10 29.91R HX 91  
WAXAHACHIE N/A 86 74 67 SE5 29.91S HX 93  
CLEBURNE SUNNY 84 73 70 S6 29.92S HX 91  
GRANBURY FAIR 89 71 56 SE8 29.90S HX 95  

 
 
TXZ083>090-098>101-113>116-127>130-139>142-154-155-080000-  
WESTERN NORTH TEXAS  
 
CITY SKY/WX TMP DP RH WIND PRES REMARKS
 
WICHITA FALLS PTSUNNY 86 72 62 E7 29.89F HX 92  
WF-KICKAPOO FAIR 89 71 55 NE3 29.91F HX 94  
VERNON FAIR 89 70 53 SE9 29.91F HX 94  
ABILENE FAIR 89 72 56 SE16 29.93R HX 96  
GRAHAM FAIR 89 74 60 E6 29.88S HX 97  
BRECKENRIDGE FAIR 89 71 56 S8 29.90F HX 94  
CISCO FAIR 90 70 51 SE8 29.92F HX 95  
EASTLAND FAIR 87 71 60 S7 29.91F HX 92  
RANGER FAIR 86 72 62 S8 29.92S HX 93  
MINERAL WELLS FAIR 86 73 65 E13 29.87S HX 93  
STEPHENVILLE FAIR 83 71 65 SE3 29.94F  
COMANCHE FAIR 81 75 83 SE3 29.93S  
BROWNWOOD FAIR 77 73 88 SW9 29.94R  
COLEMAN FAIR 75 71 85 CALM 29.95F  
BRADY TSTM 70 68 94 NW18 29.98R VSB 3/4  

 
 
TXZ143>147-156>162-174-175-080000-  
CENTRAL TEXAS  
 
CITY SKY/WX TMP DP RH WIND PRES REMARKS
 
WACO FAIR 81 74 79 E9 29.91R  
WACO-TSTC SUNNY 81 73 78 CALM 29.91R  
HILLSBORO FAIR 84 76 75 CALM 29.91R HX 92  
CORSICANA FAIR 82 75 79 E9 29.93R  
MEXIA FAIR 81 74 80 E5 29.91R  
HEARNE FAIR 88 76 67 E10 29.91S HX 98  
CAMERON FAIR 84 76 74 E8 29.89S HX 93  
TEMPLE FAIR 90 70 51 SE10 29.90R HX 95  
KILLEEN NOT AVBL  
KILLEEN-SKYLRK N/A 87 74 64 SE7 29.91R HX 95  
GATESVILLE FAIR 88 73 62 VRB5 29.92R HX 96  
HAMILTON FAIR 88 71 57 S5 29.92F HX 94  
LAMPASAS FAIR 87 72 59 S8 29.89F HX 93  

 
 
TXZ095>097-106>112-122>126-135>138-148>153-164>167-080000-  
EAST TEXAS  
 
CITY SKY/WX TMP DP RH WIND PRES REMARKS
 
PARIS PTSUNNY 87 74 64 SE13 29.91S HX 95  
SULPHUR SPRNGS FAIR 87 73 62 S9 29.93F HX 94  
MOUNT PLEASANT FAIR 87 73 62 CALM 29.92F HX 93  
GILMER FAIR 82 71 69 S6 29.93S  
MINEOLA FAIR 82 72 69 S7 29.93S  
TYLER PTSUNNY 81 75 82 SE6 29.93S  
LONGVIEW PTSUNNY 83 72 69 S8 29.92S  
MARSHALL PTSUNNY 82 73 73 S5 29.95S  
ATHENS FAIR 77 73 88 SE7 29.91F  
JACKSONVILLE CLOUDY 78 75 90 CALM 29.96S  
HENDERSON CLOUDY 79 75 87 S5 29.94F  
NACOGDOCHES LGT RAIN 79 73 83 S6 29.93F  
LUFKIN LGT RAIN 76 72 87 S6 29.93S  

 
 
SUPPLEMENTAL OBSERVATIONS (NWS FORT WORTH AREA)  
 
CITY SKY/WX TMP DP RH WIND PRES REMARKS
 
CADDO GRASSLND N/A 81 72 74 S8 N/A  
LBJ GRASSLAND N/A 91 73 55 E5 N/A HX 100  
POSSUM KINGDOM N/A 90 72 55 SE6 N/A HX 96  
GRANBURY N/A 88 72 58 SE9 N/A HX 94  
COMANCHE N/A 81 75 83 E5 N/A  
MCGREGOR N/A 90 72 55 SE5 N/A HX 96  
TEMPLE N/A 90 72 55 E6 N/A HX 96  
LAKE LIMESTONE N/A 84 73 70 E8 N/A HX 91  
PALESTINE N/A 81 73 78 S1 N/A  

 
 
SUPPLEMENTAL OBSERVATIONS (NWS NORMAN AREA)  
 
CITY SKY/WX TMP DP RH WIND PRES REMARKS
 
GOODLETT N/A 91 65 42 SE10 N/A HX 93  
ODELL N/A 89 70 53 E7 N/A HX 93  
CROWELL N/A 89 71 55 E10 N/A HX 94  
KNOX CITY N/A 93 67 42 E6 N/A HX 96  
SEYMOUR N/A 91 68 46 SE5 N/A HX 95  

 
 
SUPPLEMENTAL OBSERVATIONS (NWS SAN ANGELO AREA)  
 
CITY SKY/WX TMP DP RH WIND PRES REMARKS
 
WEINERT N/A 90 68 48 E6 N/A HX 93  
HASKELL N/A 91 67 45 E5 N/A HX 94  
THROCKMORTON N/A 92 69 47 E2 N/A HX 96  
STAMFORD N/A 93 66 40 SE3 N/A HX 96  
CLYDE N/A 81 69 67 S16 N/A  
HAMBY N/A 91 68 46 E6 N/A HX 95  
IVIE RESERVOIR N/A 73 68 83 SE12 N/A  
COLORADO BEND N/A 90 72 55 SE6 N/A HX 96  

 
 
SUPPLEMENTAL OBSERVATIONS (NWS SHREVEPORT AREA)  
 
CITY SKY/WX TMP DP RH WIND PRES REMARKS
 
TEXARKANA N/A 84 77 79 S3 N/A HX 94  
LINDEN N/A 81 75 83 SE1 N/A  
LUFKIN N/A 75 73 94 MISG N/A  
N SABINE NF N/A 79 73 83 MISG N/A  

 
 
SUPPLEMENTAL OBSERVATIONS ARE A COLLECTION OF AUTOMATED INSTRUMENTS  
THAT ARE MAINTAINED BY A VARIETY OF FEDERAL AND STATE AGENCIES.  
CERTAIN ELEMENTS...SUCH AS HUMIDITY VALUES AND SUSTAINED WIND  
SPEEDS...MAY BE APPROXIMATED.  
 
 
 
CLICK HERE TO GO TO PREVIOUS BULLETINS.

The Nexlab TX Page Main Text Page